Sioux City, IA

6:50 AM CDT on April 22, 2018 (GMT -0500)
Sioux Gateway

Weather History for KSUX - March, 2013

Change the Weather History Date:

Friday, March 15, 2013

  Actual Average Record
Temperature  
Mean Temperature 41 °F 36 °F  
Max Temperature 50 °F 47 °F 85 °F (1935)
Min Temperature 32 °F 25 °F -4 °F (1897)
Degree Days  
Heating Degree Days 24 29  
Month to date heating degree days 528 480  
Since 1 July heating degree days 5677 5774  
Cooling Degree Days 0 0  
Month to date cooling degree days 0 0  
Year to date cooling degree days 0 0  
Moisture  
Dew Point 36 °F    
Average Humidity 86    
Maximum Humidity 100    
Minimum Humidity 71    
Precipitation  
Precipitation 0.00 in 0.06 in 1.66 in (2004)
Month to date precipitation 1.52 0.76  
Year to date precipitation 2.72 2.05  
Snow  
Snow 0.00 in 0.20 in 18.40 in (2004)
Month to date snowfall 10.0 3.5  
Since 1 July snowfall 30.8 30.0  
Snow Depth 2.00 in    
Sea Level Pressure  
Sea Level Pressure 29.86 in    
Wind  
Wind Speed 9 mph (NE)    
Max Wind Speed 25 mph    
Max Gust Speed 30 mph    
Visibility 7 miles    
Events      
T = Trace of Precipitation, MM = Missing Value Source: NWS Daily Summary

Daily Weather History Graph

Daily Weather History Graph

Search for Another Location

Airport or City:

Astronomy

Mar. 15, 2013 Rise Set
Actual Time 7:36 AM CDT 7:32 PM CDT
Civil Twilight 7:09 AM CDT 8:00 PM CDT
Nautical Twilight 6:36 AM CDT 8:33 PM CDT
Astronomical Twilight 6:03 AM CDT 9:06 PM CDT
Moon 9:22 AM CDT (3/15) 11:53 PM CDT (3/15)
Length of Visible Light 12h 51m
Length of Day
11h 55m
Waxing Crescent, 15% of the Moon is Illuminated
Mar 15
Waxing Crescent
Mar 19
First Quarter
Mar 27
Full
Apr 2
Last Quarter
Apr 10
New

Hourly Weather History & Observations

Time (CDT) Temp. Windchill Dew Point Humidity Pressure Visibility Wind Dir Wind Speed Gust Speed Precip Events Conditions
12:52 AM 33.1 °F 30.0 °F 30.9 °F 92% 30.03 in 5.0 mi East 3.5 mph - N/A   Clear
1:52 AM 33.1 °F 26.1 °F 30.9 °F 92% 30.00 in 4.0 mi ESE 8.1 mph - N/A   Clear
2:52 AM 34.0 °F 27.2 °F 32.0 °F 92% 29.99 in 4.0 mi ESE 8.1 mph - N/A   Clear
3:52 AM 34.0 °F 26.0 °F 33.1 °F 96% 29.94 in 4.0 mi ESE 10.4 mph - N/A   Clear
4:52 AM 34.0 °F 26.6 °F 33.1 °F 96% 29.91 in 5.0 mi ESE 9.2 mph - N/A   Scattered Clouds
5:52 AM 35.1 °F 29.3 °F 33.1 °F 92% 29.88 in 6.0 mi ESE 6.9 mph - N/A   Mostly Cloudy
6:52 AM 36.0 °F 28.5 °F 33.1 °F 89% 29.85 in 6.0 mi ESE 10.4 mph - N/A   Partly Cloudy
7:52 AM 36.0 °F 28.5 °F 33.1 °F 89% 29.84 in 4.0 mi ESE 10.4 mph - N/A   Clear
8:52 AM 37.0 °F 31.0 °F 34.0 °F 89% 29.82 in 5.0 mi ESE 8.1 mph - N/A   Clear
9:52 AM 39.0 °F 34.0 °F 35.1 °F 86% 29.83 in 6.0 mi SE 6.9 mph - N/A   Clear
10:52 AM 39.9 °F - 36.0 °F 86% 29.82 in 7.0 mi Calm Calm - N/A   Clear
11:52 AM 45.0 °F 42.6 °F 39.0 °F 80% 29.81 in 8.0 mi North 4.6 mph - N/A   Clear
12:52 PM 46.9 °F - 39.0 °F 74% 29.82 in 10.0 mi NE 5.8 mph - N/A   Clear
1:52 PM 46.9 °F - 39.9 °F 77% 29.81 in 10.0 mi North 8.1 mph - N/A   Clear
2:52 PM 48.9 °F - 41.0 °F 74% 29.80 in 10.0 mi NNE 9.2 mph - N/A   Clear
3:52 PM 50.0 °F - 41.0 °F 71% 29.78 in 10.0 mi North 8.1 mph - N/A   Clear
4:52 PM 48.9 °F - 41.0 °F 74% 29.79 in 9.0 mi NE 6.9 mph - N/A   Clear
5:52 PM 46.9 °F - 39.9 °F 77% 29.78 in 8.0 mi NE 6.9 mph - N/A   Clear
6:52 PM 44.1 °F 39.5 °F 39.0 °F 82% 29.80 in 7.0 mi NE 8.1 mph - N/A   Clear
7:30 PM 42.8 °F 38.0 °F 39.2 °F 87% 29.80 in 6.0 mi NNE 8.1 mph - N/A   Mostly Cloudy
7:52 PM 43.0 °F 38.8 °F 37.9 °F 82% 29.83 in 7.0 mi NNE 6.9 mph - N/A   Overcast
8:52 PM 42.1 °F 39.2 °F 37.9 °F 85% 29.86 in 7.0 mi NNE 4.6 mph - N/A   Overcast
9:05 PM 42.8 °F 37.0 °F 37.4 °F 81% 29.83 in 7.0 mi North 10.4 mph - N/A   Overcast
9:26 PM 41.0 °F 36.4 °F 37.4 °F 87% 29.84 in 7.0 mi North 6.9 mph - N/A   Overcast
9:52 PM 41.0 °F 32.5 °F 37.9 °F 89% 29.89 in 7.0 mi NNW 17.3 mph - N/A   Overcast
10:07 PM 41.0 °F 33.9 °F 37.4 °F 87% 29.85 in 7.0 mi NNW 12.7 mph - N/A   Overcast
10:52 PM 37.9 °F 28.2 °F 36.0 °F 93% 29.90 in 6.0 mi NNW 18.4 mph - N/A   Overcast
11:12 PM 37.4 °F 27.8 °F 35.6 °F 93% 29.87 in 4.0 mi NNW 17.3 mph - N/A   Overcast
11:52 PM 36.0 °F 26.0 °F 34.0 °F 93% 29.90 in 7.0 mi NW 17.3 mph - N/A   Overcast